Flag for Tunisia Weather past 2 weeks in Tunis, Tunisia

Now
70 °F

Scattered clouds.


Feels Like: 70 °F
Forecast: 60 / 79 °F
Wind: 3 mph from Southeast

Location: Tunis-Carthage

Current Time: Apr 25, 2015 at 12:13:57 PM

Latest Report: Apr 25, 2015 at 11:30 AM


Visibility: N/A

Pressure: 30.04 "Hg

Humidity: 60%

Dew point: 55 °F

Location of TunisLocation

Historic Weather in Tunis — Graph

°F

Tunis temperature yesterday

Maximum temperature yesterday: 77 °F (at 1:00 PM)
Minimum temperature yesterday: 57 °F (at 11:30 PM)
Average temperature yesterday: 67 °F

Past Weeks' High & Low Weather Summary

 TemperatureHumidityPressure
High82 °F (Apr 23, 12:30 PM)100% (Apr 12, 4:30 AM)30.39 "Hg (Apr 12, 4:30 AM)
Low46 °F (Apr 15, 5:00 AM)22% (Apr 17, 1:30 AM)29.86 "Hg (Apr 18, 7:00 PM)
Average64 °F66%30.15 "Hg
* Reported Apr 10 10:00 AM — Apr 25 10:30 AM, Tunis, Weather by CustomWeather, © 2015

Note: Actual official high and low records may vary slightly from our data, if they occured in-between our weather recording intervals... More about our weather records

Advertising

Tunis weather history for previous 24 hours

 ConditionsComfort  
Time TempWeatherWind HumidityBarometerVisibility
10:30 AM
Sat, Apr 25
68 °FScattered clouds.2 mph69%30.04 "HgN/A
10:00 AM68 °FScattered clouds.No wind69%30.04 "HgN/A
9:30 AM68 °FScattered clouds.2 mph64%30.04 "HgN/A
8:30 AM64 °FScattered clouds.3 mph78%30.04 "Hg5 mi
8:00 AM64 °FScattered clouds.3 mph78%30.04 "Hg5 mi
7:30 AM63 °FScattered clouds.No wind83%30.04 "Hg5 mi
7:00 AM59 °FScattered clouds.No wind94%30.01 "Hg5 mi
6:30 AM57 °FScattered clouds.No wind94%30.01 "Hg5 mi
6:00 AM55 °FScattered clouds.No wind100%30.01 "HgN/A
5:30 AM55 °FPassing clouds.No wind100%30.01 "HgN/A
5:00 AM55 °FPassing clouds.No wind94%30.01 "HgN/A
4:30 AM55 °FPassing clouds.No wind100%30.01 "HgN/A
4:00 AM55 °FPassing clouds.1 mph100%30.01 "HgN/A
3:30 AM55 °FPassing clouds.3 mph88%30.01 "HgN/A
3:00 AM55 °FPassing clouds.3 mph100%30.01 "HgN/A
2:30 AM57 °FPassing clouds.3 mph94%30.01 "HgN/A
2:00 AM55 °FPassing clouds.3 mph94%30.01 "HgN/A
1:30 AM55 °FPassing clouds.3 mph94%30.04 "HgN/A
1:00 AM55 °FPassing clouds.2 mph94%30.04 "HgN/A
12:30 AM57 °FPassing clouds.2 mph88%30.04 "HgN/A
12:00 AM57 °FPassing clouds.No wind88%30.04 "HgN/A
11:30 PM
Fri, Apr 24
57 °FPassing clouds.3 mph88%30.04 "HgN/A
11:00 PM59 °FPassing clouds.3 mph82%30.04 "HgN/A
10:30 PM59 °FPassing clouds.N/A82%30.04 "HgN/A
10:00 PM61 °FPassing clouds.6 mph83%30.04 "HgN/A
9:30 PM61 °FPassing clouds.7 mph83%30.04 "HgN/A
8:30 PM61 °FPassing clouds.5 mph83%30.04 "HgN/A
8:00 PM63 °FPassing clouds.9 mph83%30.04 "HgN/A
7:30 PM63 °FPassing clouds.8 mph73%30.01 "HgN/A
7:00 PM64 °FPassing clouds.9 mph68%30.01 "HgN/A
6:00 PM70 °FPassing clouds.10 mph50%30.01 "HgN/A
5:30 PM72 °FPassing clouds.10 mph53%30.01 "HgN/A
5:00 PM73 °FPassing clouds.14 mph53%29.98 "HgN/A
4:30 PM72 °FPassing clouds.14 mph61%29.98 "HgN/A
4:00 PM75 °FPassing clouds.12 mph50%29.98 "HgN/A
3:30 PM77 °FPassing clouds.13 mph36%30.01 "HgN/A
3:00 PM77 °FPassing clouds.14 mph42%30.01 "HgN/A
2:30 PM77 °FPassing clouds.15 mph42%30.01 "HgN/A
2:00 PM77 °FPassing clouds.13 mph44%30.01 "HgN/A
1:00 PM77 °FPassing clouds.9 mph47%30.01 "HgN/A
12:30 PM75 °FPassing clouds.7 mph57%30.04 "HgN/A
12:00 PM75 °FPassing clouds.8 mph57%30.04 "HgN/A
Weather by CustomWeather, © 2015

See weather overviewHow to use our weather pages